Carbondale, IL

5:18 PM CDT on July 24, 2017 (GMT -0500)
Southern Illinois

Weather History for KMDH - December, 2013

Change the Weather History Date:

Sunday, December 1, 2013

  Actual Average Record
Temperature  
Mean Temperature 46 °F -  
Max Temperature 59 °F 50 °F 70 °F (1970)
Min Temperature 33 °F 31 °F 11 °F (1964)
Degree Days  
Heating Degree Days 19    
Moisture  
Dew Point 36 °F    
Average Humidity 77    
Maximum Humidity 100    
Minimum Humidity 49    
Precipitation  
Precipitation 0.00 in - - ()
Sea Level Pressure  
Sea Level Pressure 30.03 in    
Wind  
Wind Speed 3 mph (South)    
Max Wind Speed 8 mph    
Max Gust Speed -    
Visibility 8 miles    
Events Fog    
Averages and records for this station are not official NWS values.
T = Trace of Precipitation, MM = Missing Value Source: NWS Daily Summary

Daily Weather History Graph

Daily Weather History Graph

Search for Another Location

Airport or City:

Trip Planner

Search our weather history database for the weather conditions in past years. The results will help you decide how hot, cold, wet, or windy it might be!

Date:

Astronomy

Dec. 01, 2013 Rise Set
Actual Time 6:53 AM CST 4:38 PM CST
Civil Twilight 6:24 AM CST 5:07 PM CST
Nautical Twilight 5:52 AM CST 5:39 PM CST
Astronomical Twilight 5:20 AM CST 6:11 PM CST
Moon 5:13 AM CST (12/1) 3:47 PM CST (12/1)
Length of Visible Light 10h 42m
Length of Day
9h 44m
Waning Crescent, 2% of the Moon is Illuminated
Dec 1
Waning Crescent
Dec 2
New
Dec 9
First Quarter
Dec 17
Full
Dec 25
Last Quarter

Hourly Weather History & Observations

Time (CST) Temp. Windchill Dew Point Humidity Pressure Visibility Wind Dir Wind Speed Gust Speed Precip Events Conditions
12:52 AM 44.1 °F 39.5 °F 33.1 °F 65% 30.16 in 10.0 mi SSW 8.1 mph - N/A   Overcast
1:52 AM 44.1 °F 40.8 °F 34.0 °F 68% 30.15 in 10.0 mi SSW 5.8 mph - N/A   Overcast
2:52 AM 44.1 °F 40.8 °F 35.1 °F 71% 30.14 in 10.0 mi SSW 5.8 mph - N/A   Overcast
3:52 AM 45.0 °F - 36.0 °F 71% 30.13 in 10.0 mi Calm Calm - N/A   Overcast
4:52 AM 41.0 °F 37.1 °F 35.1 °F 79% 30.13 in 10.0 mi South 5.8 mph - N/A   Overcast
5:52 AM 43.0 °F 40.3 °F 36.0 °F 76% 30.12 in 10.0 mi South 4.6 mph - N/A   Overcast
6:52 AM 43.0 °F 41.3 °F 36.0 °F 76% 30.14 in 10.0 mi South 3.5 mph - N/A   Overcast
7:52 AM 44.1 °F 41.5 °F 37.0 °F 76% 30.14 in 10.0 mi South 4.6 mph - N/A   Overcast
8:52 AM 46.0 °F 43.9 °F 37.0 °F 71% 30.15 in 10.0 mi SSW 4.6 mph - N/A   Overcast
9:52 AM 48.0 °F - 37.9 °F 68% 30.15 in 10.0 mi Calm Calm - N/A   Overcast
10:52 AM 51.1 °F - 39.0 °F 63% 30.13 in 10.0 mi Calm Calm - N/A   Mostly Cloudy
11:52 AM 54.0 °F - 39.9 °F 59% 30.09 in 10.0 mi Calm Calm - N/A   Clear
12:52 PM 57.0 °F - 41.0 °F 55% 30.04 in 10.0 mi SW 3.5 mph - N/A   Clear
1:52 PM 59.0 °F - 41.0 °F 51% 30.01 in 10.0 mi Calm Calm - N/A   Clear
2:52 PM 59.0 °F - 39.9 °F 49% 30.00 in 10.0 mi Calm Calm - N/A   Clear
3:52 PM 57.9 °F - 39.9 °F 51% 29.99 in 10.0 mi Calm Calm - N/A   Clear
4:52 PM 50.0 °F - 39.0 °F 66% 29.99 in 10.0 mi Calm Calm - N/A   Clear
5:52 PM 46.0 °F 43.1 °F 37.9 °F 73% 29.99 in 10.0 mi SE 5.8 mph - N/A   Clear
6:52 PM 46.9 °F - 39.0 °F 74% 29.99 in 10.0 mi SSE 5.8 mph - N/A   Clear
7:52 PM 43.0 °F - 37.9 °F 82% 29.99 in 10.0 mi Calm Calm - N/A   Clear
8:52 PM 39.9 °F - 37.0 °F 89% 29.98 in 10.0 mi Calm Calm - N/A   Clear
9:52 PM 37.0 °F - 36.0 °F 96% 29.97 in 8.0 mi Calm Calm - N/A   Clear
10:46 PM 35.6 °F - 33.8 °F 93% 29.94 in 1.8 mi Calm Calm - N/A   Clear
10:52 PM 35.1 °F - 34.0 °F 96% 29.95 in 2.0 mi Calm Calm - N/A   Clear
10:57 PM 35.6 °F - 33.8 °F 93% 29.94 in 0.8 mi Calm Calm - N/A   Clear
11:18 PM 33.8 °F - 33.8 °F 100% 29.94 in 2.0 mi Calm Calm - N/A   Clear
11:26 PM 35.6 °F - 33.8 °F 93% 29.93 in 4.0 mi Calm Calm - N/A   Clear
11:32 PM 35.6 °F - 33.8 °F 93% 29.93 in 1.8 mi Calm Calm - N/A   Clear
11:42 PM 33.8 °F - 33.8 °F 100% 29.93 in 0.5 mi Calm Calm - N/A Fog Fog
11:52 PM 34.0 °F - 32.0 °F 92% 29.93 in 0.8 mi Calm Calm - N/A   Clear
11:56 PM 33.8 °F - 33.8 °F 100% 29.92 in 2.5 mi Calm Calm - N/A   Clear